VK4AB-13 Weather Reports


Display with metric or nautical units.
time (UTC)temp
F
wind
direction
speed
MPH
gust
MPH
rain 1hr
in
rain 24hr
in
rain mn
in
humidity
%
barometer
mb
20260509234337 70 142 2.0 4.0 0.00 0.00 0.00 63 1026.8
20260509233837 69 142 2.0 5.0 0.00 0.00 0.00 64 1026.8
20260509233337 69 140 2.0 5.0 0.00 0.00 0.00 64 1026.8
20260509232837 68 139 2.0 5.0 0.00 0.00 0.00 65 1026.9
20260509232337 68 139 2.0 4.0 0.00 0.00 0.00 66 1026.8
20260509231837 67 138 2.0 5.0 0.00 0.00 0.00 66 1026.9
20260509231337 66 134 2.0 5.0 0.00 0.00 0.00 67 1026.8
20260509230837 66 134 2.0 5.0 0.00 0.00 0.00 67 1026.7
20260509230337 65 126 1.0 4.0 0.00 0.00 0.00 69 1026.6
20260509225837 64 126 2.0 3.0 0.00 0.00 0.00 70 1026.4
20260509225337 63 126 2.0 3.0 0.00 0.00 0.00 71 1026.2
20260509224837 63 126 2.0 5.0 0.00 0.00 0.00 71 1026.2
20260509224337 62 126 2.0 5.0 0.00 0.00 0.00 74 1026.1
20260509223837 61 125 2.0 5.0 0.00 0.00 0.00 74 1026.3
20260509223337 60 120 2.0 5.0 0.00 0.00 0.00 75 1026.5
20260509222837 60 121 2.0 4.0 0.00 0.00 0.00 77 1026.3
20260509222337 59 119 2.0 4.0 0.00 0.00 0.00 78 1026.2
20260509221837 58 118 1.0 4.0 0.00 0.00 0.00 79 1026.1
20260509221337 58 117 1.0 4.0 0.00 0.00 0.00 81 1025.9
20260509220837 57 115 1.0 3.0 0.00 0.00 0.00 83 1026.0
20260509220337 56 115 1.0 3.0 0.00 0.00 0.00 84 1026.0
20260509215837 56 115 1.0 3.0 0.00 0.00 0.00 85 1025.9
20260509215338 55 110 1.0 4.0 0.00 0.00 0.00 86 1025.9
20260509214838 55 115 1.0 4.0 0.00 0.00 0.00 87 1025.9
20260509214338 54 114 1.0 4.0 0.00 0.00 0.00 89 1025.9
20260509213837 53 114 2.0 4.0 0.00 0.00 0.00 90 1025.8
20260509213338 53 113 1.0 3.0 0.00 0.00 0.00 91 1025.8
20260509212838 52 113 1.0 3.0 0.00 0.00 0.00 91 1025.9
20260509212338 52 113 0.0 3.0 0.00 0.00 0.00 91 1025.8
20260509211838 51 108 0.0 0.0 0.00 0.00 0.00 91 1025.7
20260509211338 51 113 0.0 0.0 0.00 0.00 0.00 91 1025.6
20260509210838 50 113 0.0 0.0 0.00 0.00 0.00 90 1025.6
20260509210338 50 113 0.0 0.0 0.00 0.00 0.00 90 1025.4
20260509205838 50 113 0.0 0.0 0.00 0.00 0.00 90 1025.3
20260509205338 50 113 0.0 0.0 0.00 0.00 0.00 89 1025.2
20260509204838 50 113 0.0 0.0 0.00 0.00 0.00 89 1025.1
20260509204338 50 113 0.0 0.0 0.00 0.00 0.00 89 1025.1
20260509203838 50 113 0.0 0.0 0.00 0.00 0.00 89 1025.0
20260509203338 50 113 0.0 0.0 0.00 0.00 0.00 89 1025.0
20260509202838 50 113 0.0 0.0 0.00 0.00 0.00 89 1024.9
20260509202338 50 113 0.0 0.0 0.00 0.00 0.00 89 1024.9
20260509201838 50 113 0.0 0.0 0.00 0.00 0.00 88 1024.8
20260509201338 50 113 0.0 0.0 0.00 0.00 0.00 88 1024.7
20260509200838 50 113 0.0 0.0 0.00 0.00 0.00 88 1024.7
20260509200338 50 113 0.0 0.0 0.00 0.00 0.00 88 1024.6
20260509195838 51 113 0.0 0.0 0.00 0.00 0.00 88 1024.6
20260509195338 51 113 0.0 0.0 0.00 0.00 0.00 88 1024.6
20260509194838 51 113 0.0 0.0 0.00 0.00 0.00 88 1024.7
20260509194338 51 113 0.0 0.0 0.00 0.00 0.00 88 1024.7
20260509193838 51 113 0.0 0.0 0.00 0.00 0.00 88 1024.7
20260509193338 51 113 0.0 0.0 0.00 0.00 0.00 88 1024.6
20260509192838 51 113 0.0 0.0 0.00 0.00 0.00 88 1024.6
20260509192338 51 113 0.0 0.0 0.00 0.00 0.00 88 1024.5
20260509191838 51 113 0.0 0.0 0.00 0.00 0.00 88 1024.4
20260509191338 51 113 0.0 0.0 0.00 0.00 0.00 88 1024.4
20260509190838 51 113 0.0 0.0 0.00 0.00 0.00 88 1024.2
20260509190338 51 113 0.0 0.0 0.00 0.00 0.00 88 1024.3
20260509185838 51 113 0.0 0.0 0.00 0.00 0.00 89 1024.2
20260509185338 51 113 0.0 0.0 0.00 0.00 0.00 89 1024.2
20260509184838 52 113 0.0 0.0 0.00 0.00 0.00 89 1024.2
20260509184338 51 113 0.0 0.0 0.00 0.00 0.00 88 1024.3
20260509183838 51 113 0.0 0.0 0.00 0.00 0.00 89 1024.2
20260509183338 51 113 0.0 0.0 0.00 0.00 0.00 88 1024.1
20260509182838 51 113 0.0 0.0 0.00 0.00 0.00 88 1024.0
20260509182338 51 113 0.0 0.0 0.00 0.00 0.00 87 1024.0
20260509181838 52 113 0.0 0.0 0.00 0.00 0.00 87 1024.1
20260509181338 52 113 0.0 0.0 0.00 0.00 0.00 87 1024.1
20260509180838 52 113 0.0 0.0 0.00 0.00 0.00 87 1023.9
20260509180338 52 113 0.0 0.0 0.00 0.00 0.00 86 1023.9
20260509175838 52 113 0.0 0.0 0.00 0.00 0.00 86 1023.8
20260509175338 52 113 0.0 0.0 0.00 0.00 0.00 85 1023.8
20260509174838 52 113 0.0 0.0 0.00 0.00 0.00 86 1023.8
20260509174338 52 113 0.0 0.0 0.00 0.00 0.00 85 1023.8
20260509173838 53 113 0.0 0.0 0.00 0.00 0.00 85 1023.8
20260509173424 53 113 0.0 0.0 0.00 0.00 0.00 85 1023.8
20260509173338 53 113 0.0 0.0 0.00 0.00 0.00 85 1023.8
20260509172838 53 113 0.0 0.0 0.00 0.00 0.00 85 1023.8
20260509172338 53 113 0.0 0.0 0.00 0.00 0.00 84 1023.6
20260509171838 53 113 0.0 0.0 0.00 0.00 0.00 84 1023.6
20260509171338 53 113 0.0 0.0 0.00 0.00 0.00 85 1023.6
20260509170838 53 113 0.0 0.0 0.00 0.00 0.00 85 1023.6
20260509170338 54 113 0.0 0.0 0.00 0.00 0.00 84 1023.7
20260509165838 54 113 0.0 0.0 0.00 0.00 0.00 85 1023.8
20260509165338 54 113 0.0 0.0 0.00 0.00 0.00 84 1023.7
20260509164838 54 113 0.0 0.0 0.00 0.00 0.00 84 1023.7
20260509164338 54 113 0.0 0.0 0.00 0.00 0.00 84 1023.7
20260509163838 54 113 0.0 0.0 0.00 0.00 0.00 83 1023.7
20260509163338 54 113 0.0 0.0 0.00 0.00 0.00 82 1023.7
20260509162838 54 113 0.0 0.0 0.00 0.00 0.00 82 1023.6
20260509162338 55 113 0.0 0.0 0.00 0.00 0.00 82 1023.7
20260509161838 55 113 0.0 0.0 0.00 0.00 0.00 82 1023.7
20260509161338 54 113 0.0 0.0 0.00 0.00 0.00 82 1023.7
20260509160838 54 113 0.0 0.0 0.00 0.00 0.00 81 1023.8
20260509160338 54 113 0.0 0.0 0.00 0.00 0.00 80 1023.8
20260509155838 54 113 0.0 0.0 0.00 0.00 0.00 80 1023.7
20260509155338 54 113 0.0 0.0 0.00 0.00 0.00 80 1023.7
20260509154838 54 113 0.0 0.0 0.00 0.00 0.00 81 1023.7
20260509154338 54 113 0.0 2.0 0.00 0.00 0.00 81 1023.7
20260509153838 54 113 0.0 3.0 0.00 0.00 0.00 81 1023.7
20260509153338 54 113 0.0 0.0 0.00 0.00 0.00 80 1023.8
20260509152838 55 113 0.0 0.0 0.00 0.00 0.00 80 1023.9
20260509152338 55 113 0.0 0.0 0.00 0.00 0.00 79 1023.8
20260509151838 55 113 0.0 0.0 0.00 0.00 0.00 79 1024.0
20260509151338 55 113 0.0 0.0 0.00 0.00 0.00 79 1024.0
20260509150838 55 113 0.0 0.0 0.00 0.00 0.00 79 1024.1
20260509150338 55 113 0.0 0.0 0.00 0.00 0.00 79 1024.1
20260509145838 55 113 0.0 0.0 0.00 0.00 0.00 79 1024.0
20260509145338 56 113 0.0 0.0 0.00 0.00 0.00 79 1023.9
20260509144838 56 113 0.0 0.0 0.00 0.00 0.00 79 1023.9
20260509144338 56 113 0.0 0.0 0.00 0.00 0.00 79 1023.8
20260509143838 56 113 0.0 0.0 0.00 0.00 0.00 79 1023.8
20260509143338 56 113 0.0 0.0 0.00 0.00 0.00 79 1023.8
20260509142838 56 113 0.0 2.0 0.00 0.00 0.00 79 1023.8
20260509142338 56 113 0.0 0.0 0.00 0.00 0.00 78 1023.8
20260509141838 56 113 0.0 0.0 0.00 0.00 0.00 78 1023.8
20260509141338 56 113 0.0 3.0 0.00 0.00 0.00 78 1023.8
20260509140838 56 113 0.0 0.0 0.00 0.00 0.00 78 1023.9
20260509140338 56 113 0.0 0.0 0.00 0.00 0.00 78 1023.9
20260509135838 57 113 0.0 0.0 0.00 0.00 0.00 78 1024.0
20260509135338 57 113 0.0 0.0 0.00 0.00 0.00 78 1024.0
20260509134838 57 113 0.0 0.0 0.00 0.00 0.00 77 1024.1
20260509134338 57 113 0.0 0.0 0.00 0.00 0.00 77 1024.1
20260509133838 57 113 0.0 0.0 0.00 0.00 0.00 77 1024.1
20260509133338 57 113 0.0 0.0 0.00 0.00 0.00 77 1024.1
20260509132838 57 113 0.0 0.0 0.00 0.00 0.00 77 1024.2
20260509132338 57 113 0.0 0.0 0.00 0.00 0.00 77 1024.2
20260509131838 57 113 0.0 0.0 0.00 0.00 0.00 77 1024.2
20260509131338 57 113 0.0 0.0 0.00 0.00 0.00 77 1024.2
20260509130838 57 113 0.0 0.0 0.00 0.00 0.00 77 1024.2
20260509130338 57 113 0.0 0.0 0.00 0.00 0.00 77 1024.2
20260509125838 57 113 0.0 0.0 0.00 0.00 0.00 77 1024.1
20260509125338 58 113 0.0 0.0 0.00 0.00 0.00 77 1024.1
20260509124838 58 113 0.0 0.0 0.00 0.00 0.00 77 1024.0
20260509124338 58 113 0.0 0.0 0.00 0.00 0.00 76 1024.1
20260509123838 58 113 0.0 0.0 0.00 0.00 0.00 77 1024.0
20260509123338 58 113 0.0 0.0 0.00 0.00 0.00 77 1024.0
20260509122838 58 113 0.0 0.0 0.00 0.00 0.00 76 1024.1
20260509122338 58 113 0.0 0.0 0.00 0.00 0.00 76 1024.1
20260509121838 58 113 0.0 0.0 0.00 0.00 0.00 75 1024.0
20260509121338 58 113 0.0 0.0 0.00 0.00 0.00 75 1024.0
20260509120838 58 113 0.0 0.0 0.00 0.00 0.00 74 1024.0
20260509120338 59 113 0.0 0.0 0.00 0.00 0.00 74 1024.0
20260509115838 59 113 0.0 0.0 0.00 0.00 0.00 74 1024.1
20260509115338 59 113 0.0 0.0 0.00 0.00 0.00 74 1024.1
20260509114838 59 113 0.0 0.0 0.00 0.00 0.00 74 1024.1
20260509114338 59 113 0.0 0.0 0.00 0.00 0.00 73 1024.1
20260509113838 59 113 0.0 0.0 0.00 0.00 0.00 73 1024.1
20260509113338 59 113 0.0 0.0 0.00 0.00 0.00 73 1024.0
20260509112838 59 113 0.0 0.0 0.00 0.00 0.00 73 1024.0
20260509112338 59 113 0.0 0.0 0.00 0.00 0.00 73 1024.0
20260509111838 60 113 0.0 0.0 0.00 0.00 0.00 72 1024.0
20260509111338 60 113 0.0 0.0 0.00 0.00 0.00 72 1024.0
20260509110838 60 113 0.0 0.0 0.00 0.00 0.00 72 1024.1
20260509110339 60 113 0.0 0.0 0.00 0.00 0.00 72 1024.1
20260509105838 60 113 0.0 0.0 0.00 0.00 0.00 71 1024.0
20260509105338 60 113 0.0 0.0 0.00 0.00 0.00 71 1024.0
20260509104838 60 113 0.0 0.0 0.00 0.00 0.00 70 1024.0
20260509104339 61 113 0.0 0.0 0.00 0.00 0.00 70 1023.9
20260509103839 61 113 0.0 0.0 0.00 0.00 0.00 70 1023.8
20260509103339 61 113 0.0 0.0 0.00 0.00 0.00 70 1023.8
20260509102839 61 113 0.0 0.0 0.00 0.00 0.00 68 1023.8
20260509102339 62 113 0.0 0.0 0.00 0.00 0.00 68 1023.7
20260509101839 62 113 0.0 0.0 0.00 0.00 0.00 68 1023.7
20260509101339 62 113 0.0 0.0 0.00 0.00 0.00 67 1023.7
20260509100839 62 113 0.0 0.0 0.00 0.00 0.00 67 1023.7
20260509100339 62 113 0.0 0.0 0.00 0.00 0.00 67 1023.6
20260509095839 62 113 0.0 0.0 0.00 0.00 0.00 67 1023.6
20260509095339 63 113 0.0 0.0 0.00 0.00 0.00 67 1023.5
20260509094839 63 113 0.0 0.0 0.00 0.00 0.00 66 1023.5
20260509094339 63 113 0.0 0.0 0.00 0.00 0.00 66 1023.4
20260509093839 63 113 0.0 0.0 0.00 0.00 0.00 65 1023.4
20260509093339 63 113 0.0 0.0 0.00 0.00 0.00 64 1023.3
20260509092839 64 113 0.0 0.0 0.00 0.00 0.00 64 1023.1
20260509092339 64 113 0.0 0.0 0.00 0.00 0.00 64 1023.0
20260509091839 64 113 0.0 0.0 0.00 0.00 0.00 63 1022.9
20260509091339 64 113 0.0 0.0 0.00 0.00 0.00 63 1022.9
20260509090839 65 113 0.0 0.0 0.00 0.00 0.00 63 1022.9
20260509090339 65 113 0.0 0.0 0.00 0.00 0.00 61 1022.9
20260509085839 65 113 0.0 0.0 0.00 0.00 0.00 61 1022.8
20260509085339 66 113 0.0 0.0 0.00 0.00 0.00 61 1022.7
20260509084839 66 113 0.0 0.0 0.00 0.00 0.00 60 1022.6
20260509084339 66 113 0.0 0.0 0.00 0.00 0.00 59 1022.5
20260509083839 66 113 0.0 0.0 0.00 0.00 0.00 59 1022.5
20260509083339 67 113 0.0 0.0 0.00 0.00 0.00 58 1022.4
20260509082839 67 113 0.0 0.0 0.00 0.00 0.00 58 1022.3
20260509082339 68 113 0.0 0.0 0.00 0.00 0.00 57 1022.3
20260509081839 68 113 0.0 0.0 0.00 0.00 0.00 56 1022.2
20260509081339 68 113 0.0 0.0 0.00 0.00 0.00 55 1022.2
20260509080839 69 113 0.0 0.0 0.00 0.00 0.00 55 1022.1
20260509080339 69 113 0.0 0.0 0.00 0.00 0.00 54 1022.0
20260509075839 69 113 0.0 0.0 0.00 0.00 0.00 54 1022.0
20260509075339 70 113 0.0 0.0 0.00 0.00 0.00 53 1021.9
20260509074839 70 113 0.0 0.0 0.00 0.00 0.00 53 1021.9
20260509074339 70 113 0.0 0.0 0.00 0.00 0.00 52 1021.9
20260509073839 71 113 0.0 0.0 0.00 0.00 0.00 51 1021.8
20260509073339 71 113 0.0 0.0 0.00 0.00 0.00 51 1021.8
20260509072839 71 113 0.0 0.0 0.00 0.00 0.00 50 1021.8
20260509072339 72 113 0.0 0.0 0.00 0.00 0.00 50 1021.7
20260509071839 72 113 0.0 0.0 0.00 0.00 0.00 49 1021.6
20260509071339 73 113 0.0 2.0 0.00 0.00 0.00 49 1021.6
20260509070839 73 113 0.0 1.0 0.00 0.00 0.00 48 1021.5
20260509070339 74 113 1.0 2.0 0.00 0.00 0.00 47 1021.4
20260509065839 74 113 1.0 4.0 0.00 0.00 0.00 46 1021.3
20260509065339 74 113 1.0 4.0 0.00 0.00 0.00 46 1021.2
20260509064839 75 114 1.0 6.0 0.00 0.00 0.00 45 1021.1
20260509064339 75 121 1.0 3.0 0.00 0.00 0.00 45 1021.0
20260509063839 76 121 0.0 3.0 0.00 0.00 0.00 45 1020.9
20260509063339 76 121 1.0 0.0 0.00 0.00 0.00 45 1020.9
20260509062839 76 121 1.0 4.0 0.00 0.00 0.00 44 1020.8
20260509062339 76 121 1.0 3.0 0.00 0.00 0.00 44 1020.8
20260509061839 76 121 1.0 4.0 0.00 0.00 0.00 44 1020.7
20260509061339 76 121 1.0 5.0 0.00 0.00 0.00 44 1020.7
20260509060839 76 121 1.0 3.0 0.00 0.00 0.00 44 1020.7
20260509060339 76 121 2.0 4.0 0.00 0.00 0.00 44 1020.7
20260509055839 76 122 2.0 4.0 0.00 0.00 0.00 44 1020.7
20260509055339 76 123 3.0 9.0 0.00 0.00 0.00 44 1020.6
20260509054839 77 97 3.0 6.0 0.00 0.00 0.00 44 1020.6
20260509054339 77 94 3.0 6.0 0.00 0.00 0.00 44 1020.6
20260509053839 77 97 3.0 6.0 0.00 0.00 0.00 43 1020.6
20260509053339 77 45 2.0 7.0 0.00 0.00 0.00 43 1020.5
20260509052839 77 50 2.0 3.0 0.00 0.00 0.00 43 1020.5
20260509052339 77 47 2.0 7.0 0.00 0.00 0.00 43 1020.5
20260509051839 78 145 1.0 3.0 0.00 0.00 0.00 42 1020.5
20260509051339 77 146 2.0 4.0 0.00 0.00 0.00 41 1020.4
20260509050839 77 151 3.0 6.0 0.00 0.00 0.00 41 1020.4
20260509050339 78 165 2.0 6.0 0.00 0.00 0.00 42 1020.5
20260509045839 77 65 1.0 5.0 0.00 0.00 0.00 42 1020.5
20260509045339 77 144 2.0 3.0 0.00 0.00 0.00 42 1020.5
20260509044839 77 140 1.0 5.0 0.00 0.00 0.00 41 1020.5
20260509044339 77 146 1.0 3.0 0.00 0.00 0.00 42 1020.5
20260509043839 76 146 2.0 6.0 0.00 0.00 0.00 43 1020.5
20260509043339 76 155 1.0 4.0 0.00 0.00 0.00 43 1020.5
20260509042839 76 155 2.0 6.0 0.00 0.00 0.00 44 1020.5
20260509042339 76 157 2.0 7.0 0.00 0.00 0.00 45 1020.6
20260509041839 76 163 2.0 5.0 0.00 0.00 0.00 44 1020.5
20260509041339 76 163 2.0 5.0 0.00 0.00 0.00 44 1020.5
20260509040839 76 163 3.0 5.0 0.00 0.00 0.00 44 1020.6
20260509040339 76 163 3.0 7.0 0.00 0.00 0.00 42 1020.6
20260509035839 77 165 3.0 7.0 0.00 0.00 0.00 43 1020.6
20260509035339 77 171 2.0 6.0 0.00 0.00 0.00 43 1020.6
20260509034839 77 172 2.0 6.0 0.00 0.00 0.00 43 1020.6
20260509034339 77 171 3.0 5.0 0.00 0.00 0.00 43 1020.6
20260509033839 77 175 4.0 6.0 0.00 0.00 0.00 43 1020.7
20260509033339 77 173 4.0 10.0 0.00 0.00 0.00 43 1020.7
20260509032839 77 160 4.0 9.0 0.00 0.00 0.00 43 1020.8
20260509032339 78 167 3.0 6.0 0.00 0.00 0.00 43 1020.8
20260509031839 78 171 2.0 7.0 0.00 0.00 0.00 43 1020.9
20260509031339 78 172 2.0 3.0 0.00 0.00 0.00 45 1020.8
20260509030839 77 172 2.0 7.0 0.00 0.00 0.00 45 1021.0
20260509030339 77 174 2.0 5.0 0.00 0.00 0.00 44 1021.0
20260509025839 76 175 2.0 5.0 0.00 0.00 0.00 45 1021.0
20260509025339 76 178 2.0 6.0 0.00 0.00 0.00 45 1021.1
20260509024839 76 101 2.0 7.0 0.00 0.00 0.00 45 1021.2
20260509024339 77 96 2.0 6.0 0.00 0.00 0.00 44 1021.3
20260509023839 77 92 2.0 4.0 0.00 0.00 0.00 44 1021.4
20260509023339 77 89 2.0 5.0 0.00 0.00 0.00 44 1021.4
20260509022839 77 85 2.0 7.0 0.00 0.00 0.00 44 1021.6
20260509022339 77 80 2.0 7.0 0.00 0.00 0.00 44 1021.7
20260509021839 76 48 2.0 7.0 0.00 0.00 0.00 46 1021.7
20260509021339 76 200 2.0 5.0 0.00 0.00 0.00 47 1021.8
20260509020839 75 202 2.0 6.0 0.00 0.00 0.00 47 1021.9
20260509020339 75 118 2.0 6.0 0.00 0.00 0.00 47 1021.9
20260509015839 75 112 2.0 4.0 0.00 0.00 0.00 47 1022.1
20260509015339 75 109 3.0 6.0 0.00 0.00 0.00 47 1022.1
20260509014839 75 111 3.0 6.0 0.00 0.00 0.00 47 1022.2
20260509014339 76 112 3.0 7.0 0.00 0.00 0.00 46 1022.3
20260509013839 75 170 2.0 7.0 0.00 0.00 0.00 46 1022.3
20260509013339 75 175 2.0 7.0 0.00 0.00 0.00 46 1022.4
20260509012839 75 164 2.0 5.0 0.00 0.00 0.00 46 1022.4
20260509012339 75 160 3.0 5.0 0.00 0.00 0.00 45 1022.6
20260509011839 75 165 2.0 7.0 0.00 0.00 0.00 46 1022.6
20260509011339 75 186 1.0 4.0 0.00 0.00 0.00 46 1022.7
20260509010839 74 186 1.0 4.0 0.00 0.00 0.00 45 1022.8
20260509010339 74 186 1.0 4.0 0.00 0.00 0.00 46 1022.8
20260509005839 74 189 1.0 4.0 0.00 0.00 0.00 45 1022.8
20260509005339 73 188 1.0 3.0 0.00 0.00 0.00 46 1022.9
20260509004839 73 184 1.0 5.0 0.00 0.00 0.00 46 1022.9
20260509004339 73 292 2.0 3.0 0.00 0.00 0.00 46 1023.1
20260509003839 72 292 1.0 5.0 0.00 0.00 0.00 46 1023.1
20260509003339 72 293 0.0 3.0 0.00 0.00 0.00 46 1023.1
20260509002839 71 293 1.0 2.0 0.00 0.00 0.00 47 1023.2
20260509002339 71 293 1.0 3.0 0.00 0.00 0.00 46 1023.2
20260509001839 70 293 1.0 2.0 0.00 0.00 0.00 47 1023.3
20260509001339 70 293 1.0 4.0 0.00 0.00 0.00 48 1023.3
20260509000839 69 294 1.0 4.0 0.00 0.00 0.00 47 1023.3
20260509000340 69 294 1.0 2.0 0.00 0.00 0.00 49 1023.3
20260508235839 68 294 1.0 3.0 0.00 0.00 0.00 48 1023.3
20260508235339 68 294 1.0 4.0 0.00 0.00 0.00 49 1023.3
20260508234839 67 294 1.0 2.0 0.00 0.00 0.00 49 1023.3